Location: Anglesey
(53.1800°N, 4.2200°W)
Time: 05:17:45
(UTC+00:00)

Envisat - Pass Details

Date: 15 October 2017
Orbit: 764 x 766 km, 98.2° (Epoch: 12 December)

Event Time Altitude Azimuth Distance (km) Brightness Sun altitude
Exits shadow 19:42:26 17° 112° (ESE) 1,881 4.4 -13.0°
Maximum altitude 19:45:33 31° 61° (ENE) 1,327 3.8 -13.5°
Drops below altitude 10° 19:50:00 10° 0° (N) 2,319 5.5 -14.1°
Sets 19:52:31 0° 351° (N) 3,250 6.4 -14.5°
